Hourly Data Report for October 13, 2013

All times are specified in Local Standard Time (LST). Add 1 hour to adjust for Daylight Saving Time where and when it is observed.

SAINT JOHN A
NEW BRUNSWICK

45°18'58.000" N
65°53'24.000" W
108.80 m
8104901
71609
YSJ

Download Data

Hourly Data (October 2013)
Hourly Data Report for October 13, 2013
Temp Definition
°C
Dew Point Temp Definition
°C
Rel Hum Definition
%
Wind Dir Definition
10's deg

Wind Spd Definition
km/h
Visibility Definition
km
Stn Press Definition
kPa
Hmdx Definition


Wind Chill Definition


Weather Definition


TIME
00:00 Legend Double Dagger -1.5 -2.1 96 4 5 24.1 101.74   -3 LegendNANA
01:00 Legend Double Dagger -1.6 -2.0 97 5 4 24.1 101.76   -3 LegendNANA
02:00 Legend Double Dagger -2.1 -2.5 97 7 5 24.1 101.77   -4 Clear
03:00 Legend Double Dagger -2.1 -2.5 97 7 4 24.1 101.77   -4 LegendNANA
04:00 Legend Double Dagger -2.4 -2.8 97 6 5 24.1 101.78   -4 Fog
05:00 Legend Double Dagger -1.6 -1.7 99 8 5 24.1 101.79   -3 Mainly Clear
06:00 Legend Double Dagger -2.7 -3.1 97 7 5 24.1 101.77   -5 Fog
07:00 Legend Double Dagger -1.6 -1.7 99 7 6 24.1 101.80   -4 LegendNANA
08:00 Legend Double Dagger 2.7 2.0 95 6 4 24.1 101.84     Mainly Clear
09:00 Legend Double Dagger 7.9 3.4 73 4 5 24.1 101.84     LegendNANA
10:00 Legend Double Dagger 9.9 3.4 64 32 5 24.1 101.84     LegendNANA
11:00 Legend Double Dagger 11.7 3.3 56 31 7 24.1 101.80     Mainly Clear
12:00 Legend Double Dagger 12.2 4.0 57 35 7 24.1 101.77     LegendNANA
13:00 Legend Double Dagger 13.4 4.1 53 36 3 24.1 101.73     LegendNANA
14:00 Legend Double Dagger 13.5 4.7 55 18 12 24.1 101.68     Mainly Clear
15:00 Legend Double Dagger 12.1 4.4 59 19 15 24.1 101.64     LegendNANA
16:00 Legend Double Dagger 12.2 5.0 61 21 15 24.1 101.63     LegendNANA
17:00 Legend Double Dagger 10.4 5.8 73 19 17 24.1 101.61     Mainly Clear
18:00 Legend Double Dagger 7.7 5.5 86 20 3 24.1 101.60     LegendNANA
19:00 Legend Double Dagger 2.8 2.1 95 12 2 24.1 101.61     LegendNANA
20:00 Legend Double Dagger 1.9 1.5 97 15 2 24.1 101.60     Clear
21:00 Legend Double Dagger 0.5 0.1 97 4 1 24.1 101.59     LegendNANA
22:00 Legend Double Dagger -0.2 -0.3 99 31 1 24.1 101.57   -1 Fog
23:00 Legend Double Dagger 0.6 0.6 100 6 2 24.1 101.55     Fog

Notes on Data Quality.

Legend

  • E = Estimated
  • M = Missing
  • NA = Not Available
  • ‡ = Partner data that is not subject to review by the National Climate Archives
Date modified: